Flag for Angola Weather past 2 weeks in Lucapa, Angola

Now
79 °F

Clear.


Feels Like: 82 °F
Forecast: 67 / 95 °F
Wind: 3 mph from Southwest

Location: Brazzaville / Maya-Maya

Current Time: May 24, 2015 at 8:44:29 PM

Latest Report: May 24, 2015 at 8:00 PM


Visibility: 5 mi

Pressure: 29.92 "Hg

Humidity: 84%

Dew point: 73 °F

Location of LucapaLocation

Historic Weather in Lucapa — Graph

°F

Lucapa temperature yesterday

Maximum temperature yesterday: 90 °F (at 2:00 PM)
Minimum temperature yesterday: 77 °F (at 2:00 AM)
Average temperature yesterday: 82 °F

Past Weeks' High & Low Weather Summary

 TemperatureHumidityPressure
High93 °F (May 11, 4:00 PM)100% (May 10, 3:00 AM)30.01 "Hg (May 10, 3:00 AM)
Low72 °F (May 11, 5:00 AM)49% (May 11, 2:00 PM)29.74 "Hg (May 14, 3:00 PM)
Average80 °F81%29.92 "Hg
* Reported May 9 7:00 PM — May 24 7:00 PM, Lucapa, Weather by CustomWeather, © 2015

Note: Actual official high and low records may vary slightly from our data, if they occured in-between our weather recording intervals... More about our weather records

Advertising

Lucapa weather history for previous 24 hours

 ConditionsComfort  
Time TempWeatherWind HumidityBarometerVisibility
7:00 PM
Sun, May 24
81 °FClear.2 mph79%29.89 "Hg5 mi
6:00 PM82 °FClear.3 mph74%29.86 "Hg5 mi
5:00 PM84 °FScattered clouds.3 mph70%29.86 "Hg5 mi
4:00 PM86 °FScattered clouds.6 mph62%29.86 "Hg5 mi
3:00 PM86 °FScattered clouds.3 mph66%29.86 "Hg5 mi
2:00 PM86 °FScattered clouds.3 mph66%29.89 "Hg5 mi
1:00 PM82 °FBroken clouds.7 mph74%29.92 "Hg4 mi
12:00 PM81 °FBroken clouds.3 mph79%29.95 "Hg4 mi
11:00 AM79 °FMore clouds than sun.5 mph79%29.98 "Hg4 mi
10:00 AM79 °FMore clouds than sun.5 mph84%29.98 "Hg4 mi
9:00 AM77 °FMore clouds than sun.2 mph83%29.98 "Hg4 mi
8:00 AM77 °FPartly sunny.7 mph83%29.98 "Hg4 mi
7:00 AM75 °FMostly cloudy.3 mph89%29.95 "Hg4 mi
6:00 AM75 °FMostly cloudy.3 mph89%29.95 "Hg4 mi
5:00 AM75 °FPassing clouds.3 mph89%29.92 "Hg5 mi
4:00 AM75 °FPassing clouds.2 mph94%29.92 "Hg5 mi
2:00 AM77 °FPassing clouds.1 mph89%29.92 "Hg5 mi
1:00 AM77 °FPassing clouds.3 mph83%29.95 "Hg5 mi
12:00 AM77 °FClear.3 mph89%29.95 "Hg5 mi
10:00 PM
Sat, May 23
79 °FPassing clouds.6 mph84%29.95 "Hg4 mi
9:00 PM81 °FPassing clouds.5 mph79%29.92 "Hg4 mi
8:00 PM81 °FPassing clouds.6 mph79%29.89 "Hg4 mi
Weather by CustomWeather, © 2015

See weather overviewHow to use our weather pages